Location: Crocus Hill
(18.2167°N, 63.0667°W)
Time: 06:16:42
(UTC+00:00)

Cosmos 1295 Rocket - Pass Details

Date: 26 January 2020
Orbit: 943 x 994 km, 82.9° (Epoch: 17 February)

Event Time Altitude Azimuth Distance (km) Brightness Sun altitude
Rises 09:05:49 0° 356° (N) 3,626 7.3 -23.8°
Reaches altitude 10° 09:08:19 10° 356° (N) 2,673 6.6 -23.3°
Maximum altitude 09:14:26 89° 82° (E) 949 4.4 -21.8°
Drops below altitude 10° 09:20:29 10° 176° (S) 2,651 7.0 -20.4°
Sets 09:22:57 0° 176° (S) 3,594 7.7 -19.9°
